CAPE
0 0 0 0 0 0 0 0 0 0 0 0 0 0 0 0 1 0 1 2 0 39 26 60 32 106 65 17 0 0 0 0 0 0 1 0 1 32 12 21 8 1 3
0 0 0 0 0 0 0 0 0 0 0 0 0 0 0 1 2 0 0 2 0 1 63 46 13 34 46 35 0 0 0 0 0 0 0 0 6 0 0 0 0 0 0
0 0 0 0 0 0 0 0 0 0 0 0 0 0 0 0 0 1 0 1 0 2 9 16 0 18 38 13 0 0 0 0 0 0 0 0 0 0 0 0 0 0 0
0 0 0 0 0 0 0 0 0 0 0 0 0 0 1 2 2 3 3 0 1 2 0 9 12 28 58 23 2 0 0 0 0 0 5 0 0 0 0 0 1 0 1
0 0 0 0 0 0 0 0 0 0 0 0 0 0 0 0 0 0 2 0 1 3 1 0 0 62 51 62 12 0 0 0 0 2 5 4 0 0 0 0 0 0 2
0 0 0 0 0 0 0 0 0 0 0 0 0 0 0 0 0 0 1 0 1 3 1 1 0 0 51 47 25 5 0 1 19 11 0 2 0 0 0 0 0 0 4
0 0 0 0 0 0 0 0 0 0 0 0 0 0 0 0 0 0 0 1 0 1 1 2 0 0 0 22 31 28 13 15 14 17 4 0 0 0 0 2 0 0 5
0 0 0 0 0 0 0 0 0 0 0 0 0 0 0 0 0 0 0 0 0 1 0 0 1 1 0 12 35 12 26 15 5 15 12 9 0 0 4 0 0 0 3
0 0 0 0 0 0 0 0 0 0 0 0 0 0 0 0 0 0 0 0 0 0 0 0 0 1 1 0 56 43 15 6 5 5 11 14 23 1 5 2 5 0 0
0 0 0 0 0 0 0 0 0 0 0 0 0 0 0 0 0 0 0 0 0 0 0 0 0 1 0 1 4 31 4 2 2 2 6 2 3 12 6 1 0 1 0
0 0 0 0 0 0 0 0 0 0 0 0 0 0 0 0 0 0 0 0 0 0 0 0 1 0 0 0 0 0 3 2 0 0 0 0 0 0 0 0 0 0 0
0 0 0 0 0 0 0 0 0 0 0 0 0 0 0 0 0 0 0 0 0 0 0 0 1 0 0 0 0 0 0 0 0 0 0 0 0 0 0 0 0 0 0
0 0 0 0 0 0 0 0 0 0 0 0 0 0 0 0 0 0 0 0 0 0 0 0 1 0 0 0 0 0 0 0 0 0 0 1 0 0 0 0 0 0 0
0 0 0 0 0 0 0 0 0 0 0 0 0 0 0 0 0 0 1 0 0 0 0 0 1 0 0 0 0 0 0 1 0 0 0 0 0 0 0 0 0 0 0
0 0 0 0 0 0 0 0 0 0 0 0 0 0 0 0 0 0 0 0 1 0 0 1 1 1 1 1 0 0 0 0 0 0 0 0 0 0 0 0 0 0 0
0 0 0 0 0 0 0 0 0 0 0 0 0 0 0 0 0 1 1 0 0 1 1 1 1 1 1 1 0 0 0 0 0 0 0 0 0 0 0 0 0 0 0
0 0 0 0 0 0 0 0 0 0 0 0 0 0 0 0 0 0 0 1 1 1 1 1 1 2 1 1 0 0 0 0 0 0 0 0 0 0 0 0 0 0 0
0 0 0 0 0 0 0 0 0 0 0 0 0 0 0 0 0 0 0 0 0 0 1 1 0 0 1 0 0 0 0 0 0 0 0 0 0 0 0 0 0 0 0
0 0 0 0 0 0 0 0 0 0 0 0 0 0 0 0 0 0 0 0 0 0 0 0 0 0 0 0 0 0 0 0 0 0 0 0 0 0 0 0 0 0 0
0 0 0 0 0 0 0 0 0 0 0 0 0 0 0 0 0 0 0 0 0 0 0 0 0 0 0 0 0 0 0 0 0 0 0 0 0 0 0 0 0 0 0
0 0 0 0 0 0 0 0 0 0 0 0 0 0 0 0 0 0 0 0 0 0 0 0 0 0 0 0 0 0 0 0 0 0 0 0 0 0 0 0 0 0 0
0 0 0 0 0 0 0 0 0 0 0 0 0 0 0 0 0 0 0 0 0 0 0 0 0 0 0 0 0 0 0 0 0 0 0 0 0 0 0 0 0 0 0
0 0 0 0 0 0 0 0 0 0 0 0 0 0 0 0 0 0 0 0 0 0 0 0 0 0 0 0 0 0 0 0 0 0 0 0 0 0 0 0 0 0 0
0 0 0 0 0 0 0 0 0 0 0 0 0 0 0 0 0 0 0 0 0 0 0 0 0 0 0 0 0 0 0 0 0 0 0 0 0 0 0 0 0 0 0
0 0 0 0 0 0 0 0 0 0 0 0 0 0 0 0 0 0 0 0 0 0 0 0 0 0 0 0 0 0 0 0 0 0 0 0 0 0 0 0 0 0 0
0 0 0 0 0 0 0 0 0 0 0 0 0 0 0 0 0 0 0 0 0 0 0 0 0 0 0 0 0 0 0 0 0 0 0 0 0 0 0 0 0 0 0
CIN
-0 -0 -0 -0 -0 -0 -0 -0 -0 -0 -0 -0 -0 -0 -0 -0 -0 -0 -0 -0 -0 -5 -0 -2 -3 -0 -9 -46 -0 -0 -0 -0 -0 -0 -64 -0 -19 -16 -20 -25 -20 -18 -25
-0 -0 -0 -0 -0 -0 -0 -0 -0 -0 -0 -0 -0 -0 -0 -0 -0 -0 -0 -0 -0 -0 -7 -4 -1 -9 -33 -47 -0 -0 -0 -0 -0 -0 -0 -0 -13 -0 -0 -0 -0 -0 -0
-0 -0 -0 -0 -0 -0 -0 -0 -0 -0 -0 -0 -0 -0 -0 -0 -0 -0 -0 -0 -0 -0 -19 -9 -7 -8 -36 -77 -0 -0 -0 -0 -0 -22 -0 -0 -0 -0 -0 -0 -0 -0 -0
-0 -0 -0 -0 -0 -0 -0 -0 -0 -0 -0 -0 -0 -0 -0 -0 -0 -0 -0 -0 -0 -0 -0 -13 -10 -7 -22 -39 -30 -0 -0 -0 -0 -0 -26 -0 -0 -0 -0 -0 -0 -0 -0
-0 -0 -0 -0 -0 -0 -0 -0 -0 -0 -0 -0 -0 -0 -0 -0 -0 -0 -0 -0 -0 -0 -0 -0 -1 -9 -18 -9 -25 -0 -0 -0 -0 -40 -37 -27 -0 -0 -0 -0 -0 -0 -0
-0 -0 -0 -0 -0 -0 -0 -0 -0 -0 -0 -0 -0 -0 -0 -0 -0 -0 -0 -0 -0 -0 -0 -0 -0 -0 -0 -4 -17 -28 -0 -22 -33 -35 -0 -16 -0 -0 -0 -0 -0 -0 -0
-0 -0 -0 -0 -0 -0 -0 -0 -0 -0 -0 -0 -0 -0 -0 -0 -0 -0 -0 -0 -0 -0 -0 -0 -0 -0 -2 -5 -3 -9 -17 -15 -24 -29 -22 -0 -0 -0 -0 -18 -3 -0 -0
-0 -0 -0 -0 -0 -0 -0 -0 -0 -0 -0 -0 -0 -0 -0 -0 -0 -0 -0 -0 -0 -0 -0 -0 -0 -0 -0 -60 -2 -4 -13 -23 -18 -18 -25 -27 -0 -0 -62 -3 -8 -0 -0
-0 -0 -0 -0 -0 -0 -0 -0 -0 -0 -0 -0 -0 -0 -0 -0 -0 -0 -0 -0 -0 -0 -0 -0 -0 -0 -0 -0 -5 -2 -8 -32 -44 -25 -26 -31 -45 -6 -41 -18 -38 -0 -3
-0 -0 -0 -0 -0 -0 -0 -0 -0 -0 -0 -0 -0 -0 -0 -0 -0 -0 -0 -0 -0 -0 -0 -0 -0 -0 -0 -0 -24 -12 -26 -15 -35 -22 -22 -41 -33 -31 -54 -36 -0 -28 -0
-0 -0 -0 -0 -0 -0 -0 -0 -0 -0 -0 -0 -0 -0 -0 -0 -0 -0 -0 -0 -0 -0 -0 -0 -0 -0 -0 -0 -20 -2 -31 -13 -0 -0 -10 -0 -0 -0 -0 -0 -0 -0 -0
-0 -0 -0 -0 -0 -0 -0 -0 -0 -0 -0 -0 -0 -0 -0 -0 -0 -0 -0 -0 -0 -0 -0 -0 -0 -0 -0 -0 -0 -3 -3 -0 -0 -0 -0 -0 -0 -0 -0 -0 -0 -0 -0
-0 -0 -0 -0 -0 -0 -0 -0 -0 -0 -0 -0 -0 -0 -0 -0 -0 -0 -0 -0 -0 -0 -0 -0 -0 -0 -0 -0 -0 -0 -0 -0 -0 -0 -0 -0 -0 -0 -0 -0 -0 -0 -0
-0 -0 -0 -0 -0 -0 -0 -0 -0 -0 -0 -0 -0 -0 -0 -0 -0 -0 -0 -0 -0 -0 -0 -0 -0 -0 -0 -0 -0 -0 -0 -0 -0 -0 -0 -0 -0 -0 -0 -0 -0 -0 -0
-0 -0 -0 -0 -0 -0 -0 -0 -0 -0 -0 -0 -0 -0 -0 -0 -0 -0 -0 -0 -0 -0 -0 -0 -0 -0 -0 -0 -0 -0 -0 -0 -0 -0 -0 -0 -0 -0 -0 -0 -0 -0 -0
-0 -0 -0 -0 -0 -0 -0 -0 -0 -0 -0 -0 -0 -0 -0 -0 -0 -0 -0 -0 -0 -0 -0 -0 -0 -0 -0 -0 -0 -0 -0 -0 -0 -0 -0 -0 -0 -0 -0 -0 -0 -0 -0
-0 -0 -0 -0 -0 -0 -0 -0 -0 -0 -0 -0 -0 -0 -0 -0 -0 -0 -0 -0 -0 -0 -0 -0 -0 -0 -0 -0 -0 -0 -0 -0 -0 -0 -0 -0 -0 -0 -0 -0 -0 -0 -0
-0 -0 -0 -0 -0 -0 -0 -0 -0 -0 -0 -0 -0 -0 -0 -0 -0 -0 -0 -0 -0 -0 -0 -0 -0 -0 -0 -0 -0 -0 -0 -0 -0 -0 -0 -0 -0 -0 -0 -0 -0 -0 -0
-0 -0 -0 -0 -0 -0 -0 -0 -0 -0 -0 -0 -0 -0 -0 -0 -0 -0 -0 -0 -0 -0 -0 -0 -0 -0 -0 -0 -0 -0 -0 -0 -0 -0 -0 -0 -0 -0 -0 -0 -0 -0 -0
-0 -0 -0 -0 -0 -0 -0 -0 -0 -0 -0 -0 -0 -0 -0 -0 -0 -0 -0 -0 -0 -0 -0 -0 -0 -0 -0 -0 -0 -0 -0 -0 -0 -0 -0 -0 -0 -0 -0 -0 -0 -0 -0
-0 -0 -0 -0 -0 -0 -0 -0 -0 -0 -0 -0 -0 -0 -0 -0 -0 -0 -0 -0 -0 -0 -0 -0 -0 -0 -0 -0 -0 -0 -0 -0 -0 -0 -0 -0 -0 -0 -0 -0 -0 -0 -0
-0 -0 -0 -0 -0 -0 -0 -0 -0 -0 -0 -0 -0 -0 -0 -0 -0 -0 -0 -0 -0 -0 -0 -0 -0 -0 -0 -0 -0 -0 -0 -0 -0 -0 -0 -0 -0 -0 -0 -0 -0 -0 -0
-0 -0 -0 -0 -0 -0 -0 -0 -0 -0 -0 -0 -0 -0 -0 -0 -0 -0 -0 -0 -0 -0 -0 -0 -0 -0 -0 -0 -0 -0 -0 -0 -0 -0 -0 -0 -0 -0 -0 -0 -0 -0 -0
-0 -0 -0 -0 -0 -0 -0 -0 -0 -0 -0 -0 -0 -0 -0 -0 -0 -0 -0 -0 -0 -0 -0 -0 -0 -0 -0 -0 -0 -0 -0 -0 -0 -0 -0 -0 -0 -0 -0 -0 -0 -0 -0
-0 -0 -0 -0 -0 -0 -0 -0 -0 -0 -0 -0 -0 -0 -0 -0 -0 -0 -0 -0 -0 -0 -0 -0 -0 -0 -0 -0 -0 -0 -0 -0 -0 -0 -0 -0 -0 -0 -0 -0 -0 -0 -0
-0 -0 -0 -0 -0 -0 -0 -0 -0 -0 -0 -0 -0 -0 -0 -0 -0 -0 -0 -0 -0 -0 -0 -0 -0 -0 -0 -0 -0 -0 -0 -0 -0 -0 -0 -0 -0 -0 -0 -0 -0 -0 -0
Wind_Speed
16 15 15 18 19 20 19 15 15 27 26 25 24 22 22 22 22 23 24 22 21 24 23 22 20 15 16 13 15 14 10 8 7 10 12 12 14 15 18 14 14 14 14
19 17 17 17 19 20 19 15 12 4 25 24 23 22 23 21 21 22 21 18 17 21 17 18 18 15 14 11 11 12 11 12 7 10 12 15 15 13 13 14 14 15 14
21 21 19 17 19 19 19 17 15 8 7 23 22 21 21 20 19 19 19 15 16 18 13 11 10 12 13 11 10 10 10 8 10 6 11 14 14 8 13 15 14 14 15
22 20 19 18 16 16 18 18 18 18 14 22 20 19 18 19 19 18 18 14 13 13 12 12 12 10 11 11 11 12 11 9 6 9 8 12 11 12 13 14 14 14 16
21 21 19 16 15 16 18 16 18 17 16 21 19 18 18 18 19 18 18 14 15 10 8 12 11 13 11 16 10 12 10 8 4 6 8 10 13 13 13 14 12 14 17
22 20 17 17 17 17 19 17 16 10 11 19 18 17 17 17 17 17 18 15 13 14 14 11 13 15 10 13 14 16 9 5 5 3 6 5 10 11 14 15 13 14 17
23 22 19 18 18 18 19 17 16 12 8 9 12 12 15 15 14 15 16 17 16 17 16 19 14 15 13 14 13 12 8 6 3 2 3 7 10 14 12 14 16 17 18
22 22 21 19 18 19 19 18 17 11 12 11 9 11 12 13 15 14 15 16 16 17 19 18 17 17 16 19 17 13 7 7 7 4 5 8 12 16 16 15 14 19 18
21 22 20 19 19 19 19 19 17 14 11 7 10 16 11 13 14 14 14 13 14 17 16 17 17 17 17 16 18 16 12 7 9 9 10 13 15 17 17 17 16 14 16
21 21 19 19 19 19 19 19 18 17 14 11 12 11 9 13 14 14 14 15 14 16 18 17 15 15 18 16 14 12 9 9 8 10 13 17 17 13 14 15 11 8 12
19 20 20 18 19 20 19 19 19 18 17 14 11 9 10 12 11 11 12 13 13 14 16 17 18 17 17 17 15 10 8 11 12 12 11 14 14 8 11 12 12 11 12
17 18 19 18 18 19 19 19 19 18 18 17 17 13 9 13 12 13 14 14 13 13 13 14 13 11 11 13 10 11 8 7 7 8 9 11 11 12 12 12 13 13 14
15 15 18 18 17 18 20 19 20 20 19 18 17 17 15 15 15 16 17 18 17 14 12 10 9 9 8 7 6 5 7 5 8 10 10 11 11 13 14 12 12 13 11
10 13 15 17 19 19 19 21 21 20 20 20 19 17 15 16 15 15 16 18 21 17 5 7 8 8 8 8 8 7 8 8 10 11 11 11 11 11 11 11 11 12 12
8 11 14 15 17 19 20 21 22 22 21 22 22 22 21 16 15 17 15 15 17 20 20 14 14 14 13 13 12 14 13 12 13 13 13 13 12 12 12 11 10 10 10
9 11 13 14 15 16 19 20 21 21 22 22 23 22 22 23 24 16 19 22 20 18 17 14 15 14 13 14 14 14 14 13 13 13 13 13 14 14 15 14 13 11 10
9 10 12 13 15 16 17 19 20 21 21 22 22 23 22 23 23 24 23 19 18 17 15 14 15 14 14 14 15 14 14 13 12 13 13 13 14 14 14 15 16 16 14
7 8 10 12 13 15 17 18 19 20 20 21 22 22 23 23 21 23 23 23 23 22 20 18 16 14 14 14 14 14 14 13 13 13 13 13 13 14 14 14 15 16 17
6 7 9 10 12 13 14 15 17 18 18 19 20 20 21 22 23 23 22 21 22 22 22 22 22 21 19 18 17 16 15 15 15 14 13 13 12 13 14 14 14 15 16
4 6 7 8 9 10 12 13 13 14 16 17 18 19 19 20 21 22 22 20 20 21 22 22 21 21 20 19 18 17 16 15 14 14 14 14 14 14 14 14 15 15 16
3 5 5 6 8 9 9 9 10 11 12 13 15 16 17 17 17 18 18 19 19 19 18 18 17 16 16 15 15 15 14 13 12 12 13 13 13 12 12 13 13 14 16
4 4 4 4 5 7 7 6 8 8 9 9 11 12 13 13 14 14 14 14 15 15 15 15 15 14 13 13 13 12 11 11 11 11 11 11 11 11 11 11 11 12 11
6 5 3 3 3 4 5 4 4 5 6 6 7 8 9 9 10 10 11 11 11 10 10 10 10 10 10 10 10 10 9 9 9 9 9 9 8 8 8 7 7 7 7
8 8 5 3 2 1 2 2 5 4 4 4 4 5 5 6 6 7 7 8 8 8 7 7 7 9 8 7 8 8 8 8 8 7 7 7 7 7 6 5 5 4 3
10 10 10 8 6 4 3 3 5 5 5 5 6 5 5 5 5 5 5 4 4 5 7 6 8 9 9 8 6 5 6 6 6 6 6 6 6 5 6 7 7 7 8
14 12 13 16 14 10 9 8 8 7 8 9 8 7 7 8 9 10 11 9 7 6 6 10 10 11 11 13 11 8 7 7 6 8 9 8 7 7 6 6 9 10 10
Wind_Direction
33 33 30 23 22 22 26 34 26 321 320 310 303 284 268 267 277 281 275 286 269 240 232 236 239 227 227 218 229 238 246 259 278 298 307 315 319 324 324 342 341 347 352
28 27 29 29 28 27 29 37 45 91 316 308 301 283 270 274 275 276 272 286 275 252 226 230 234 230 224 211 215 232 249 264 267 294 307 311 319 326 338 350 353 357 1
30 31 29 34 33 32 31 35 40 66 184 306 298 290 275 275 282 275 267 277 284 249 227 220 217 227 223 205 213 232 238 253 267 296 315 311 313 342 337 346 357 3 1
34 34 36 41 44 44 39 39 34 36 48 317 297 292 285 274 279 271 263 264 284 244 242 229 230 217 225 220 220 235 245 260 261 289 316 325 331 326 329 340 348 358 358
38 38 44 52 55 53 46 50 46 43 45 339 306 290 284 275 277 267 255 261 251 244 236 228 237 238 236 236 231 241 246 259 264 289 306 314 323 327 336 328 336 343 349
41 44 54 55 57 57 50 57 61 88 91 314 310 286 272 277 275 257 237 261 264 245 249 247 249 249 249 249 249 248 245 240 277 294 317 325 327 331 327 325 333 330 336
40 46 50 53 58 54 54 64 68 89 116 166 155 209 267 278 273 264 258 254 260 255 257 250 266 267 264 255 257 254 242 237 250 167 328 327 325 327 331 327 326 326 328
44 46 52 57 59 58 59 68 76 97 105 140 228 263 238 245 254 276 259 261 257 253 253 255 258 263 261 256 262 260 268 271 289 301 324 333 326 316 325 326 327 325 330
46 47 55 59 61 63 64 71 83 99 121 161 277 34 234 240 255 270 276 275 272 264 266 260 259 265 265 266 258 262 266 277 292 294 314 323 323 320 328 323 322 320 326
49 51 59 63 65 67 71 76 84 93 113 141 136 159 238 286 276 274 277 279 276 266 255 263 267 273 264 267 271 268 275 279 292 308 310 314 313 322 328 342 341 338 330
52 53 60 68 70 71 76 81 85 93 99 114 154 182 165 176 209 243 266 291 275 279 264 258 258 270 266 267 270 280 293 297 297 312 324 339 344 349 351 347 348 338 334
54 62 61 70 76 76 80 82 90 96 101 107 106 131 196 151 212 207 198 211 244 262 252 246 255 279 282 273 280 287 292 328 337 329 336 340 344 349 345 339 331 332 333
52 67 66 69 79 85 83 88 91 94 99 105 110 114 124 134 140 144 143 153 185 210 235 256 268 285 311 327 347 349 12 15 340 339 343 349 347 342 336 344 358 359 17
57 68 73 73 77 85 90 90 94 98 98 99 105 113 119 124 135 150 163 162 133 78 355 282 280 296 323 345 342 334 341 341 353 358 351 7 21 46 46 35 19 10 7
89 82 78 84 85 85 86 90 95 97 98 96 96 97 103 125 131 131 155 172 173 168 136 53 50 50 46 49 53 67 67 65 62 55 49 32 24 20 22 28 31 26 17
100 88 80 89 94 95 92 94 98 97 95 95 95 98 101 102 99 136 134 129 146 167 62 51 61 48 34 47 58 62 62 59 59 51 34 24 19 16 19 25 30 37 41
77 80 89 90 97 103 99 96 97 97 95 93 94 96 101 104 108 108 67 37 40 43 40 41 49 43 35 43 51 57 52 45 39 36 34 26 23 29 32 31 41 41 49
64 71 85 85 94 96 99 95 93 90 91 95 93 95 97 100 110 111 116 122 119 91 62 54 47 40 31 37 47 48 47 43 37 40 42 45 38 41 45 56 55 54 64
88 66 86 89 90 96 95 88 89 94 94 96 98 96 99 98 98 102 115 122 123 126 128 124 107 99 87 74 78 74 71 62 62 78 72 67 64 62 69 75 69 65 66
65 70 71 78 90 95 98 93 88 87 101 99 100 91 87 95 95 92 93 106 116 109 109 107 113 105 101 100 98 93 85 82 79 73 81 84 79 81 93 96 94 92 94
7 39 62 87 102 100 100 100 96 98 85 77 74 79 80 80 80 79 89 90 87 86 80 75 71 71 77 72 75 87 89 84 74 68 67 61 61 71 85 95 98 94 102
329 358 41 57 75 101 100 92 110 93 78 70 75 72 66 58 63 66 64 68 68 69 67 69 71 66 64 68 70 71 71 71 71 75 69 62 64 64 72 84 83 89 89
315 327 5 29 48 98 112 90 64 46 61 68 79 75 71 70 63 50 36 40 45 48 44 44 48 51 50 51 52 49 48 55 49 52 58 55 53 54 53 70 80 86 94
311 309 317 333 346 62 127 114 351 8 23 27 29 36 55 59 57 35 36 36 23 18 22 21 15 5 12 21 16 15 18 19 18 27 32 32 22 13 20 26 14 11 10
303 302 302 307 309 306 287 298 312 319 325 332 333 339 344 350 357 1 8 9 5 358 349 350 345 340 341 347 356 3 2 7 12 10 6 1 3 358 346 336 329 323 318
296 295 297 298 301 302 297 295 293 295 302 306 310 314 317 320 321 322 322 321 323 321 316 321 322 321 322 324 327 327 333 334 340 334 323 321 321 323 323 314 310 306 301